Regional Weather Roundup
Issued by NWS

Home | Current Version | Previous Version | Text Only | Print | Product List | Glossary Off
Versions: 1 2 3 4 5 6 7 8 9 10 11 12 13 14 15 16 17 18 19 20 21 22 23 24 25 26 27 28 29 30 31 32 33 34 35 36 37 38 39 40 41 42 43 44 45 46 47 48 49 50

000
ASUS43 KBIS 270020
RWRND

NORTH DAKOTA REGIONAL WEATHER ROUNDUP
NATIONAL WEATHER SERVICE BISMARCK ND
600 PM CST FRI DEC 26 2014

NOTE: "FAIR" INDICATES FEW OR NO CLOUDS BELOW 12,000 FEET WITH NO
SIGNIFICANT WEATHER AND/OR OBSTRUCTIONS TO VISIBILITY.


NDZ001>003-009>011-017-270100-
NORTHWEST NORTH DAKOTA

CITY           SKY/WX    TMP DP  RH WIND       PRES   REMARKS
WILLISTON      CLOUDY    19  13  77 SE5       30.14F WCI  12
6HR MIN TEMP:  15; 6HR MAX TEMP:  20;

MINOT          CLOUDY     7   1  76 N7        30.17S WCI  -5
MINOT AFB      CLOUDY     5   1  80 N3        30.17F
$$

NDZ018>021-031>035-040>046-270100-
SOUTHWEST NORTH DAKOTA

CITY           SKY/WX    TMP DP  RH WIND       PRES   REMARKS
BISMARCK       MOCLDY    13   8  81 N6        30.20R WCI   4
6HR MIN TEMP:  12; 6HR MAX TEMP:  19;

DICKINSON      PTCLDY    15  10  80 E6        30.10R WCI   6
GARRISON         N/A      9   5  84 NW6       30.16R WCI  -1
6HR MIN TEMP:   9; 6HR MAX TEMP:  18;

HETTINGER ARPT CLEAR     14  10  84 CALM      30.12R
$$

NDZ004>008-012>016-024-026-027-054-270100-
NORTHEAST NORTH DAKOTA

CITY           SKY/WX    TMP DP  RH WIND       PRES   REMARKS
GRAND FORKS    CLEAR      7   2  80 NW7       30.25R WCI  -5
GRND FRKS AFB  CLEAR      7   2  82 N10       30.24S WCI  -8
DEVILS LAKE    CLEAR      3  -2  78 NW5       30.18S WCI  -6
$$

NDZ022-023-025-028>030-036>039-047>053-270100-
SOUTHEAST NORTH DAKOTA

CITY           SKY/WX    TMP DP  RH WIND       PRES   REMARKS
FARGO          CLOUDY    21  14  74 NW15      30.21R WCI   8
6HR MIN TEMP:  21; 6HR MAX TEMP:  25; 6HR PCP: TRACE;

JAMESTOWN      CLOUDY     7   3  84 N5        30.20R WCI  -2
$$



USA.gov is the U.S. government's official web portal to all federal, state and local government web resources and services.